FW6498 Weather Reports


Display with metric or nautical units.
time (UTC)temp
F
wind
direction
speed
MPH
gust
MPH
rain 1hr
in
rain 24hr
in
rain mn
in
humidity
%
barometer
mb
20260507045500 59 0 0.0 0.0 0.00 0.00 0.00 79 1010.4
20260507045000 59 0 0.0 0.0 0.00 0.00 0.00 79 1010.2
20260507044500 59 0 0.0 0.0 0.00 0.00 0.00 79 1010.3
20260507044001 59 0 0.0 0.0 0.00 0.00 0.00 79 1010.2
20260507043500 59 0 0.0 0.0 0.00 0.00 0.00 79 1010.2
20260507043001 59 161 0.0 1.0 0.00 0.00 0.00 79 1010.1
20260507042500 58 161 0.0 1.0 0.00 0.00 0.00 79 1010.1
20260507042002 58 0 0.0 0.0 0.00 0.00 0.00 80 1010.1
20260507041500 58 0 0.0 0.0 0.00 0.00 0.00 80 1009.9
20260507041001 58 0 0.0 0.0 0.00 0.00 0.00 80 1009.9
20260507040500 58 0 0.0 0.0 0.00 0.00 0.00 79 1009.8
20260507040003 58 0 0.0 0.0 0.00 0.00 0.00 79 1009.8
20260507035500 59 0 0.0 0.0 0.00 0.00 0.00 79 1009.7
20260507035001 59 0 0.0 0.0 0.00 0.00 0.00 79 1009.6
20260507033001 59 0 0.0 0.0 0.00 0.00 0.00 78 1009.6
20260507032501 59 0 0.0 0.0 0.00 0.00 0.00 78 1009.5
20260507031500 59 0 0.0 0.0 0.00 0.00 0.00 78 1009.5
20260507031001 59 0 0.0 0.0 0.00 0.00 0.00 78 1009.4
20260507030500 59 0 0.0 0.0 0.00 0.00 0.00 77 1009.4
20260507030002 60 0 0.0 0.0 0.00 0.00 0.00 77 1009.4
20260507025500 60 0 0.0 0.0 0.00 0.00 0.00 76 1009.3
20260507025002 60 0 0.0 0.0 0.00 0.00 0.00 76 1009.3
20260507024500 60 0 0.0 0.0 0.00 0.00 0.00 75 1009.3
20260507024001 60 203 0.0 1.0 0.00 0.00 0.00 76 1009.1
20260507023500 60 196 0.0 1.0 0.00 0.00 0.00 76 1009.1
20260507023002 60 176 0.0 6.0 0.00 0.00 0.00 75 1009.0
20260507022500 60 175 0.0 6.0 0.00 0.00 0.00 75 1009.2
20260507021501 61 174 0.0 7.0 0.00 0.00 0.00 75 1009.2
20260507020500 60 164 0.0 4.0 0.00 0.00 0.00 75 1009.2
20260507020002 60 188 0.0 3.0 0.00 0.00 0.00 75 1009.1
20260507015501 61 181 0.0 6.0 0.00 0.00 0.00 74 1009.1
20260507015001 61 177 0.0 6.0 0.00 0.00 0.00 74 1009.1
20260507014501 61 169 0.0 8.0 0.00 0.00 0.00 74 1008.9
20260507014002 61 176 0.0 10.0 0.00 0.00 0.00 74 1009.0
20260507013501 61 189 0.0 10.0 0.00 0.00 0.00 73 1008.9
20260507013001 62 194 0.0 7.0 0.00 0.00 0.00 73 1008.9
20260507012500 62 177 1.0 12.0 0.00 0.00 0.00 72 1008.8
20260507011500 62 182 2.0 13.0 0.00 0.00 0.00 72 1008.8
20260507011001 62 171 2.0 13.0 0.00 0.00 0.00 71 1008.6
20260507010500 62 170 2.0 13.0 0.00 0.00 0.00 71 1008.5
20260507010001 63 181 1.0 11.0 0.00 0.00 0.00 71 1008.5
20260507005501 63 179 2.0 11.0 0.00 0.00 0.00 71 1008.5
20260507005002 63 179 3.0 14.0 0.00 0.00 0.00 71 1008.4
20260507004500 63 182 4.0 14.0 0.00 0.00 0.00 70 1008.4
20260507004001 63 174 4.0 14.0 0.00 0.00 0.00 70 1008.4
20260507003500 63 165 3.0 15.0 0.00 0.00 0.00 70 1008.4
20260507003002 63 181 3.0 15.0 0.00 0.00 0.00 70 1008.2
20260507002500 63 181 4.0 18.0 0.00 0.00 0.00 70 1008.2
20260507002001 63 174 5.0 18.0 0.00 0.00 0.00 70 1008.3
20260507001501 63 178 4.0 17.0 0.00 0.00 0.00 70 1008.2
20260507000500 63 194 3.0 21.0 0.00 0.00 0.00 70 1008.3
20260507000002 63 170 3.0 16.0 0.00 0.00 0.00 70 1008.1
20260506235501 63 168 3.0 16.0 0.00 0.00 0.00 70 1008.2
20260506235002 64 171 3.0 14.0 0.00 0.00 0.00 69 1008.0
20260506234500 64 177 2.0 15.0 0.00 0.00 0.00 69 1008.0
20260506234001 64 170 5.0 20.0 0.00 0.00 0.00 69 1008.0
20260506233500 64 171 5.0 20.0 0.00 0.00 0.00 69 1007.9
20260506231001 64 163 4.0 20.0 0.00 0.00 0.00 68 1007.9
20260506230501 64 152 5.0 20.0 0.00 0.00 0.00 68 1007.9
20260506230002 65 157 5.0 23.0 0.00 0.00 0.00 68 1007.7
20260506225501 65 160 5.0 23.0 0.00 0.00 0.00 68 1007.8
20260506225001 65 158 4.0 19.0 0.00 0.00 0.00 68 1007.6
20260506224500 65 162 5.0 19.0 0.00 0.00 0.00 67 1007.7
20260506224002 65 167 5.0 19.0 0.00 0.00 0.00 67 1007.8
20260506223001 65 174 9.0 23.0 0.00 0.00 0.00 67 1007.7
20260506222001 65 177 6.0 23.0 0.00 0.00 0.00 67 1007.8
20260506221500 65 189 6.0 23.0 0.00 0.00 0.00 67 1007.9
20260506221001 65 182 6.0 19.0 0.00 0.00 0.00 67 1007.7
20260506220500 65 182 6.0 19.0 0.00 0.00 0.00 67 1007.6
20260506220002 65 182 6.0 19.0 0.00 0.00 0.00 67 1007.7
20260506215500 65 177 6.0 20.0 0.00 0.00 0.00 66 1007.6
20260506215002 65 179 5.0 20.0 0.00 0.00 0.00 66 1007.5
20260506214500 66 186 6.0 19.0 0.00 0.00 0.00 66 1007.6
20260506213001 66 176 6.0 23.0 0.00 0.00 0.00 65 1007.6
20260506212500 66 178 8.0 29.0 0.00 0.00 0.00 65 1007.5
20260506211501 66 170 5.0 22.0 0.00 0.00 0.00 65 1007.5
20260506210501 67 173 7.0 25.0 0.00 0.00 0.00 64 1007.4
20260506210001 67 177 9.0 25.0 0.00 0.00 0.00 64 1007.3
20260506205501 67 174 11.0 27.0 0.00 0.00 0.00 64 1007.4
20260506205003 67 171 11.0 27.0 0.00 0.00 0.00 63 1007.3
20260506204501 67 178 9.0 22.0 0.00 0.00 0.00 63 1007.2
20260506204003 67 181 10.0 24.0 0.00 0.00 0.00 63 1007.4
20260506203500 67 179 10.0 24.0 0.00 0.00 0.00 63 1007.5
20260506203001 67 182 8.0 25.0 0.00 0.00 0.00 63 1007.5
20260506202501 67 178 7.0 25.0 0.00 0.00 0.00 62 1007.3
20260506202002 68 182 5.0 19.0 0.00 0.00 0.00 62 1007.3
20260506201501 68 179 6.0 19.0 0.00 0.00 0.00 62 1007.3
20260506201003 68 185 7.0 21.0 0.00 0.00 0.00 62 1007.2
20260506200500 68 189 7.0 22.0 0.00 0.00 0.00 61 1007.2
20260506195501 68 182 7.0 22.0 0.00 0.00 0.00 61 1007.1
20260506195001 68 182 7.0 22.0 0.00 0.00 0.00 61 1007.1
20260506194501 68 174 6.0 20.0 0.00 0.00 0.00 61 1007.0
20260506194002 68 168 6.0 20.0 0.00 0.00 0.00 60 1007.1
20260506193501 68 166 5.0 18.0 0.00 0.00 0.00 60 1007.0
20260506193002 68 172 3.0 14.0 0.00 0.00 0.00 60 1007.1
20260506192501 68 175 2.0 12.0 0.00 0.00 0.00 60 1007.1
20260506192002 69 171 3.0 14.0 0.00 0.00 0.00 59 1007.1
20260506191500 69 179 4.0 14.0 0.00 0.00 0.00 59 1007.1
20260506191001 69 184 5.0 17.0 0.00 0.00 0.00 59 1007.1
20260506190501 69 184 5.0 18.0 0.00 0.00 0.00 59 1007.0
20260506190002 69 183 6.0 19.0 0.00 0.00 0.00 59 1006.9
20260506185501 69 185 4.0 19.0 0.00 0.00 0.00 58 1006.8
20260506185001 69 179 2.0 19.0 0.00 0.00 0.00 58 1006.7
20260506184001 69 172 2.0 13.0 0.00 0.00 0.00 57 1006.6
20260506183002 69 162 2.0 17.0 0.00 0.00 0.00 57 1006.3
20260506182501 69 158 1.0 17.0 0.00 0.00 0.00 57 1006.1
20260506182003 70 173 1.0 13.0 0.00 0.00 0.00 56 1006.2
20260506181502 70 179 2.0 13.0 0.00 0.00 0.00 56 1006.1
20260506181002 70 177 2.0 13.0 0.00 0.00 0.00 56 1006.2
20260506180501 70 174 2.0 13.0 0.00 0.00 0.00 55 1006.2
20260506175500 70 177 4.0 21.0 0.00 0.00 0.00 54 1006.1
20260506175001 71 177 4.0 21.0 0.00 0.00 0.00 54 1006.0
20260506174500 71 186 5.0 18.0 0.00 0.00 0.00 54 1006.0
20260506174001 71 189 7.0 20.0 0.00 0.00 0.00 53 1006.1
20260506173501 71 194 7.0 20.0 0.00 0.00 0.00 53 1006.2
20260506173002 71 197 9.0 22.0 0.00 0.00 0.00 53 1006.2
20260506172501 72 195 9.0 30.0 0.00 0.00 0.00 52 1006.4
20260506172001 72 189 7.0 30.0 0.00 0.00 0.00 53 1006.1
20260506171501 72 181 6.0 24.0 0.00 0.00 0.00 53 1006.1
20260506171002 72 179 2.0 24.0 0.00 0.00 0.00 53 1006.0
20260506170501 73 172 4.0 19.0 0.00 0.00 0.00 53 1006.0
20260506170001 73 172 5.0 19.0 0.00 0.00 0.00 53 1006.1
20260506165500 73 178 5.0 18.0 0.00 0.00 0.00 52 1006.1
20260506164500 73 185 8.0 21.0 0.00 0.00 0.00 52 1006.2
20260506163001 74 167 2.0 13.0 0.00 0.00 0.00 51 1006.4
20260506162501 74 172 2.0 16.0 0.00 0.00 0.00 51 1006.3
20260506161501 74 161 2.0 16.0 0.00 0.00 0.00 50 1006.3
20260506161002 74 164 3.0 16.0 0.00 0.00 0.00 50 1006.3
20260506160501 74 165 1.0 10.0 0.00 0.00 0.00 49 1006.5
20260506160002 74 165 1.0 8.0 0.00 0.00 0.00 49 1006.4
20260506155501 74 161 1.0 9.0 0.00 0.00 0.00 49 1006.6
20260506155001 74 172 1.0 11.0 0.00 0.00 0.00 49 1006.6
20260506154500 74 164 1.0 11.0 0.00 0.00 0.00 49 1006.8
20260506154002 74 146 1.0 10.0 0.00 0.00 0.00 49 1006.7
20260506153500 74 157 1.0 10.0 0.00 0.00 0.00 49 1006.7
20260506153002 74 156 1.0 10.0 0.00 0.00 0.00 50 1006.8
20260506152501 74 166 2.0 12.0 0.00 0.00 0.00 50 1007.0
20260506152001 74 158 3.0 15.0 0.00 0.00 0.00 50 1006.9
20260506151502 74 151 3.0 15.0 0.00 0.00 0.00 51 1007.0
20260506151002 74 148 3.0 17.0 0.00 0.00 0.00 53 1007.0
20260506150500 74 150 2.0 17.0 0.00 0.00 0.00 52 1006.9
20260506150002 74 163 1.0 16.0 0.00 0.00 0.00 53 1007.1
20260506145501 74 166 1.0 12.0 0.00 0.00 0.00 53 1007.1
20260506145002 74 157 1.0 11.0 0.00 0.00 0.00 53 1007.2
20260506144501 74 141 1.0 13.0 0.00 0.00 0.00 54 1007.2
20260506144002 75 131 3.0 20.0 0.00 0.00 0.00 53 1007.1
20260506143501 75 139 3.0 20.0 0.00 0.00 0.00 53 1007.1
20260506142501 75 152 3.0 15.0 0.00 0.00 0.00 52 1007.2
20260506142002 75 153 4.0 15.0 0.00 0.00 0.00 52 1007.4
20260506141501 76 154 4.0 14.0 0.00 0.00 0.00 51 1007.4
20260506141003 76 154 4.0 15.0 0.00 0.00 0.00 51 1007.5
20260506140501 76 153 4.0 17.0 0.00 0.00 0.00 51 1007.5
20260506135503 76 155 2.0 16.0 0.00 0.00 0.00 52 1007.5
20260506135003 76 156 2.0 16.0 0.00 0.00 0.00 51 1007.6
20260506134502 76 155 4.0 16.0 0.00 0.00 0.00 52 1007.6
20260506134002 76 151 3.0 17.0 0.00 0.00 0.00 51 1007.6
20260506133502 76 159 1.0 17.0 0.00 0.00 0.00 51 1007.7
20260506133002 75 151 3.0 15.0 0.00 0.00 0.00 54 1007.8
20260506132501 74 163 4.0 18.0 0.00 0.00 0.00 53 1007.8
20260506132001 74 187 4.0 18.0 0.00 0.00 0.00 54 1007.7
20260506131500 74 178 4.0 17.0 0.00 0.00 0.00 53 1008.0
20260506131001 75 167 5.0 17.0 0.00 0.00 0.00 52 1008.0
20260506130501 76 163 5.0 21.0 0.00 0.00 0.00 51 1008.0
20260506130001 75 161 4.0 21.0 0.00 0.00 0.00 52 1007.9
20260506125500 74 160 4.0 14.0 0.00 0.00 0.00 54 1008.0
20260506125002 74 166 5.0 20.0 0.00 0.00 0.00 54 1008.2
20260506124501 74 169 5.0 20.0 0.00 0.00 0.00 54 1008.2
20260506124001 74 166 5.0 16.0 0.00 0.00 0.00 54 1008.3
20260506123501 75 158 4.0 16.0 0.00 0.00 0.00 53 1008.3
20260506122501 76 157 1.0 14.0 0.00 0.00 0.00 54 1008.3
20260506122003 75 162 1.0 14.0 0.00 0.00 0.00 54 1008.3
20260506121500 75 170 2.0 14.0 0.00 0.00 0.00 55 1008.3
20260506121002 74 189 4.0 18.0 0.00 0.00 0.00 55 1008.4
20260506120501 74 195 3.0 18.0 0.00 0.00 0.00 54 1008.7
20260506120002 74 178 2.0 13.0 0.00 0.00 0.00 54 1008.6
20260506115501 75 165 3.0 13.0 0.00 0.00 0.00 54 1008.6
20260506115003 74 170 3.0 16.0 0.00 0.00 0.00 55 1008.6
20260506114502 74 171 2.0 16.0 0.00 0.00 0.00 56 1008.6
20260506112002 74 196 1.0 13.0 0.00 0.00 0.00 54 1008.8
20260506111501 74 198 1.0 11.0 0.00 0.00 0.00 54 1008.8
20260506111002 74 186 1.0 10.0 0.00 0.00 0.00 55 1008.9
20260506110501 73 198 1.0 12.0 0.00 0.00 0.00 56 1009.0
20260506110003 73 206 0.0 12.0 0.00 0.00 0.00 56 1008.8
20260506105501 74 183 1.0 7.0 0.00 0.00 0.00 56 1009.0
20260506105002 74 193 2.0 14.0 0.00 0.00 0.00 55 1009.0
20260506104502 74 197 2.0 14.0 0.00 0.00 0.00 56 1009.1
20260506104002 74 199 2.0 15.0 0.00 0.00 0.00 56 1009.0
20260506103501 74 198 2.0 15.0 0.00 0.00 0.00 57 1009.0
20260506103002 73 198 1.0 11.0 0.00 0.00 0.00 56 1009.0
20260506102502 73 204 1.0 11.0 0.00 0.00 0.00 57 1009.2
20260506101501 72 202 1.0 10.0 0.00 0.00 0.00 58 1009.2
20260506101001 72 196 1.0 10.0 0.00 0.00 0.00 59 1009.2
20260506100501 71 198 0.0 10.0 0.00 0.00 0.00 59 1009.2
20260506100002 71 210 0.0 7.0 0.00 0.00 0.00 60 1009.3
20260506095501 71 201 1.0 13.0 0.00 0.00 0.00 61 1009.4
20260506095002 70 199 1.0 13.0 0.00 0.00 0.00 60 1009.3
20260506094501 71 207 0.0 3.0 0.00 0.00 0.00 61 1009.4
20260506094002 70 218 0.0 4.0 0.00 0.00 0.00 61 1009.5
20260506093501 70 220 0.0 9.0 0.00 0.00 0.00 61 1009.4
20260506093002 70 188 0.0 9.0 0.00 0.00 0.00 61 1009.4
20260506092501 70 185 0.0 8.0 0.00 0.00 0.00 62 1009.5
20260506092002 69 204 0.0 6.0 0.00 0.00 0.00 63 1009.5
20260506091503 68 197 0.0 6.0 0.00 0.00 0.00 63 1009.5
20260506091002 68 215 0.0 3.0 0.00 0.00 0.00 64 1009.5
20260506090501 68 210 0.0 3.0 0.00 0.00 0.00 65 1009.4
20260506090002 67 211 0.0 2.0 0.00 0.00 0.00 65 1009.5
20260506085501 67 222 0.0 2.0 0.00 0.00 0.00 66 1009.5
20260506084501 66 187 0.0 6.0 0.00 0.00 0.00 66 1009.5
20260506084003 66 203 0.0 6.0 0.00 0.00 0.00 66 1009.5
20260506083002 65 208 0.0 4.0 0.00 0.00 0.00 67 1009.5
20260506082501 65 210 0.0 4.0 0.00 0.00 0.00 67 1009.4
20260506082002 65 210 0.0 1.0 0.00 0.00 0.00 68 1009.5
20260506081501 65 204 0.0 5.0 0.00 0.00 0.00 67 1009.5
20260506080503 64 211 0.0 2.0 0.00 0.00 0.00 69 1009.3
20260506072501 63 0 0.0 0.0 0.00 0.00 0.00 70 1009.5
20260506072002 62 164 0.0 4.0 0.00 0.00 0.00 70 1009.6
20260506071501 62 166 0.0 4.0 0.00 0.00 0.00 70 1009.7
20260506071003 62 175 0.0 1.0 0.00 0.00 0.00 71 1009.7
20260506062501 60 205 0.0 4.0 0.00 0.00 0.00 73 1009.5
20260506061502 60 197 0.0 6.0 0.00 0.00 0.00 73 1009.7
20260506061002 60 196 0.0 6.0 0.00 0.00 0.00 74 1009.8
20260506060502 60 195 0.0 8.0 0.00 0.00 0.00 73 1009.7